Precipitable_Water
0.41 0.42 0.43 0.46 0.46 0.41 0.55 0.90 1.07 1.03 1.15 1.15 1.18 1.17 1.14 1.19 1.19 1.21 1.28 1.31 1.29 1.16 1.12 1.29 1.40 1.41 1.46 1.53 1.49 1.53 1.47 1.41
0.34 0.40 0.43 0.44 0.47 0.42 0.50 0.78 1.01 0.96 1.01 1.01 1.00 0.97 1.06 1.11 1.19 1.27 1.30 1.27 1.24 1.18 1.12 1.27 1.44 1.40 1.46 1.54 1.51 1.44 1.44 1.45
0.29 0.30 0.39 0.43 0.44 0.45 0.51 0.75 1.01 0.95 0.99 1.05 1.03 1.01 1.04 1.11 1.18 1.26 1.28 1.27 1.23 1.15 1.15 1.25 1.41 1.40 1.44 1.47 1.45 1.41 1.42 1.44
0.31 0.33 0.34 0.36 0.42 0.46 0.50 0.69 1.01 1.00 1.02 1.05 1.01 1.05 1.06 1.06 1.13 1.15 1.22 1.23 1.23 1.12 1.23 1.29 1.38 1.45 1.44 1.42 1.45 1.40 1.32 1.37
0.50 0.45 0.42 0.37 0.42 0.45 0.52 0.61 0.75 1.04 1.02 0.97 0.90 0.88 0.82 0.94 1.06 1.15 1.15 1.16 1.13 1.08 1.25 1.31 1.38 1.46 1.44 1.41 1.47 1.42 1.38 1.26
0.62 0.59 0.54 0.47 0.41 0.48 0.56 0.62 0.71 1.05 0.96 0.98 0.94 0.92 0.94 1.03 1.11 1.08 1.06 1.12 1.00 1.13 1.28 1.31 1.33 1.44 1.44 1.46 1.45 1.44 1.42 1.32
0.69 0.67 0.62 0.51 0.47 0.49 0.61 0.67 0.75 0.99 1.00 1.00 1.01 0.94 1.00 1.04 1.04 1.00 1.01 0.89 0.96 1.13 1.24 1.31 1.41 1.42 1.43 1.48 1.48 1.44 1.40 1.37
0.81 0.72 0.68 0.59 0.51 0.49 0.71 0.72 0.76 0.97 1.00 0.98 1.09 1.07 1.10 1.14 1.03 0.98 0.86 0.88 0.97 1.09 1.22 1.30 1.44 1.46 1.49 1.50 1.46 1.43 1.42 1.35
0.81 0.86 0.83 0.70 0.58 0.71 0.78 0.79 0.82 1.01 0.98 1.01 1.08 1.13 1.18 1.14 1.05 0.94 0.88 0.94 1.02 1.15 1.23 1.34 1.41 1.49 1.50 1.47 1.44 1.46 1.44 1.39
0.76 0.80 0.86 0.81 0.95 0.90 0.89 0.87 0.88 0.99 1.01 1.04 1.12 1.20 1.14 1.10 1.01 0.89 0.96 0.98 1.07 1.18 1.31 1.43 1.48 1.47 1.46 1.47 1.43 1.42 1.42 1.39
0.72 0.83 0.86 0.96 0.94 0.96 0.97 0.94 0.98 1.05 1.08 1.13 1.19 1.12 1.13 1.09 0.94 0.90 0.92 1.00 1.12 1.23 1.31 1.43 1.45 1.47 1.45 1.45 1.41 1.42 1.38 1.38
0.70 0.83 0.92 0.97 1.07 1.01 0.94 1.00 1.07 1.13 1.13 1.18 1.15 1.11 1.11 1.01 0.92 0.90 0.94 1.05 1.19 1.26 1.33 1.39 1.43 1.41 1.44 1.42 1.42 1.40 1.33 1.35
0.70 0.80 0.86 0.91 0.93 0.97 0.89 1.03 1.09 1.13 1.14 1.16 1.12 1.13 1.05 0.97 0.91 0.91 0.98 1.12 1.23 1.26 1.34 1.35 1.38 1.40 1.41 1.39 1.37 1.37 1.34 1.30
0.66 0.76 0.79 0.83 0.86 0.89 0.95 1.05 1.11 1.16 1.16 1.13 1.14 1.03 1.01 0.93 0.89 0.93 1.01 1.14 1.19 1.23 1.30 1.31 1.32 1.34 1.34 1.38 1.37 1.31 1.28 1.31
0.62 0.70 0.75 0.80 0.83 0.86 0.91 1.08 1.15 1.17 1.16 1.13 1.08 1.01 1.00 0.90 0.90 0.96 1.03 1.12 1.18 1.21 1.28 1.30 1.30 1.32 1.33 1.34 1.33 1.31 1.28 1.23
0.57 0.64 0.72 0.76 0.81 0.85 0.90 0.99 1.14 1.18 1.15 1.14 1.06 1.05 1.04 0.95 0.95 0.98 1.05 1.11 1.15 1.20 1.24 1.27 1.29 1.28 1.27 1.24 1.23 1.22 1.21 1.22
0.54 0.59 0.69 0.75 0.77 0.83 0.87 0.95 1.08 1.19 1.17 1.13 1.08 1.05 1.05 0.99 0.96 0.99 1.06 1.10 1.12 1.13 1.12 1.14 1.18 1.17 1.22 1.26 1.29 1.26 1.26 1.25
0.51 0.56 0.62 0.73 0.76 0.81 0.84 0.91 1.02 1.07 1.14 1.11 1.05 1.03 0.98 0.95 0.95 0.94 0.96 1.01 1.02 0.99 1.00 1.01 0.99 1.02 1.08 1.13 1.20 1.23 1.21 1.23
0.51 0.56 0.59 0.68 0.78 0.81 0.86 0.90 0.95 0.99 1.06 1.04 1.00 0.99 0.90 0.88 0.90 0.89 0.90 0.93 0.94 0.94 0.93 0.93 0.92 0.94 0.99 1.03 1.05 1.03 1.00 0.99
Wind_Speed
29 30 31 32 32 33 32 30 29 28 28 28 28 28 27 26 25 25 25 24 24 23 24 25 25 26 24 24 23 23 24 26
29 28 28 29 30 30 32 31 29 27 29 28 28 28 27 27 26 25 25 24 24 24 25 25 24 27 27 27 25 25 27 27
30 31 31 30 28 29 29 29 29 27 28 29 29 28 28 27 26 26 26 26 26 26 25 25 25 26 32 29 28 27 30 31
26 26 28 30 31 29 28 28 28 28 27 28 28 28 27 26 26 26 26 26 26 26 26 26 27 28 29 27 30 29 31 31
24 25 27 29 30 31 31 30 29 28 27 28 29 27 26 25 24 24 25 26 26 26 26 26 27 28 29 30 31 31 33 32
22 24 26 29 29 30 31 30 29 28 28 28 28 27 25 24 24 24 24 24 24 25 26 27 28 29 31 31 33 34 36 34
19 22 22 25 27 28 30 28 27 27 28 28 27 27 24 23 22 22 23 23 24 25 26 27 29 30 32 32 35 34 38 36
15 18 19 21 25 27 27 26 25 26 27 27 26 26 24 21 21 21 21 22 22 24 25 27 28 30 33 33 36 35 38 36
15 14 14 17 20 22 22 24 24 25 25 25 26 24 22 21 20 20 20 21 21 22 24 27 29 32 35 34 33 35 36 38
14 13 13 15 15 16 19 21 23 24 24 24 24 22 20 19 19 19 20 20 20 21 22 25 28 30 31 34 35 35 35 37
11 11 12 12 15 17 19 20 21 23 23 22 22 19 19 17 17 17 17 18 19 19 20 22 24 27 31 34 32 31 36 36
9 10 10 10 11 14 17 20 18 22 22 21 20 18 17 16 15 15 16 16 16 16 17 19 25 25 29 33 32 34 33 37
8 9 10 9 8 11 14 18 18 22 21 20 18 18 16 15 14 13 13 12 11 12 13 18 23 26 29 33 32 32 34 35
8 9 11 12 11 11 13 18 18 20 20 20 19 18 17 15 13 12 11 10 9 7 8 12 17 19 24 28 33 31 33 31
10 9 10 12 12 12 13 18 19 20 20 21 20 19 16 15 14 12 11 10 9 8 9 12 14 17 19 22 25 31 30 28
11 10 11 12 13 14 16 17 20 20 19 21 21 19 17 15 14 12 11 11 10 10 11 13 14 14 16 20 23 27 29 28
12 12 12 12 14 16 18 18 19 21 19 20 21 19 17 15 14 12 11 11 11 12 12 13 13 14 16 19 20 21 23 24
12 12 12 13 14 16 18 20 20 19 21 19 20 18 17 14 14 13 12 10 9 10 11 12 12 11 13 16 18 19 21 21
11 12 12 13 14 15 17 18 19 19 19 19 20 19 18 17 16 14 14 13 13 12 11 12 12 11 13 15 17 17 17 17
Wind_Direction
240 240 240 237 238 237 236 236 239 241 245 246 247 251 255 258 257 254 255 258 257 259 257 250 244 237 235 224 223 216 211 201
243 240 237 238 238 237 236 236 238 244 244 244 245 250 253 255 252 253 255 256 258 259 257 247 241 237 231 221 220 214 207 201
242 241 238 237 237 237 234 235 239 245 245 245 248 250 252 251 250 254 255 256 258 260 252 243 240 238 226 226 222 212 207 204
242 240 238 237 238 236 234 236 241 246 245 244 247 247 248 246 251 253 253 256 258 258 247 242 239 232 231 225 213 211 207 207
245 245 244 241 238 236 237 239 243 246 243 242 243 245 242 246 249 253 254 256 260 254 245 242 240 235 228 222 216 213 210 211
245 246 248 244 239 238 237 238 242 242 240 241 241 237 239 247 250 253 254 257 259 252 246 244 240 234 226 223 220 217 211 209
251 248 249 246 239 239 234 235 241 240 236 239 238 231 237 243 248 251 254 258 257 253 249 244 238 232 224 223 219 219 210 214
266 256 252 247 239 234 230 231 240 234 234 235 231 227 237 242 245 251 256 257 257 254 248 242 235 231 222 220 216 215 212 212
267 268 272 249 239 223 225 231 236 231 230 228 224 229 234 245 249 255 257 259 258 254 250 243 237 231 221 219 214 211 215 211
265 267 271 244 228 223 227 233 233 226 223 220 222 225 233 244 251 255 260 261 260 257 252 243 235 218 216 212 210 212 210 208
276 263 270 264 223 229 235 233 232 221 215 214 219 224 234 243 250 256 259 261 263 260 249 239 221 215 213 207 210 209 205 206
282 262 268 261 232 239 236 222 224 211 209 213 218 226 232 242 250 256 260 261 261 254 247 228 213 213 214 210 209 209 207 206
291 269 254 255 259 233 225 216 222 212 212 214 219 225 232 240 246 254 257 255 254 248 238 228 217 221 214 207 207 203 203 203
299 281 258 252 254 248 229 217 220 214 212 217 223 225 232 238 243 248 249 240 236 236 214 199 203 201 197 203 203 203 201 209
300 288 270 254 249 244 236 222 220 218 219 220 223 224 230 236 236 238 236 230 223 212 195 185 177 182 188 191 198 204 208 210
300 294 279 260 250 245 238 232 227 222 224 222 222 223 227 229 228 230 227 221 216 206 195 186 187 185 190 197 203 207 211 216
299 294 286 271 255 248 241 237 232 226 226 221 220 222 223 224 223 221 218 214 211 207 205 207 202 204 208 205 206 210 213 216
301 300 287 276 262 251 243 238 236 226 220 219 217 220 222 221 220 218 215 208 198 195 195 197 200 208 212 213 215 217 220 225
303 300 295 280 267 251 242 237 228 224 225 221 219 221 223 221 220 219 218 217 214 211 206 207 210 216 216 214 211 212 215 220